KLM271 EHAM-LPPT

Flight info

Callsign KLM271
Flight time N/A
Altitude 38000
Route WOODY N872 MEDIL DCT KOVIN DCT NIDUV DCT KIHVI UN872 ERIGA UZ218 FUJTI DCT ATLEN DCT ABUPI DCT XAMAX
Aircraft B77W/H-SDE1E2E3FGHIJ2J3J4J5M1RWXY/LB1D1

Departure

Time N/A
Airport Amsterdam Airport Schiphol (EHAM)

Arrival

Time 2026-05-06 01:09
Airport Lisbon Humberto Delgado Airport (LPPT)
Time Latitude Longitude Altitude Speed Heading
2026-05-06 00:10 42.88515 -6.02343 38106 ft 491 kts 221°
2026-05-06 00:10 42.83187 -6.08170 38102 ft 491 kts 221°
2026-05-06 00:11 42.77860 -6.13983 38091 ft 490 kts 221°
2026-05-06 00:11 42.72564 -6.19747 38097 ft 490 kts 221°
2026-05-06 00:12 42.67229 -6.25543 38099 ft 490 kts 221°
2026-05-06 00:12 42.61900 -6.31318 38097 ft 489 kts 221°
2026-05-06 00:13 42.56576 -6.37073 38086 ft 489 kts 221°
2026-05-06 00:13 42.51253 -6.42814 38085 ft 488 kts 221°
2026-05-06 00:14 42.45937 -6.48538 38086 ft 488 kts 221°
2026-05-06 00:14 42.40630 -6.54237 38088 ft 486 kts 221°
2026-05-06 00:15 42.35350 -6.59896 38086 ft 487 kts 221°
2026-05-06 00:15 42.30039 -6.65573 38101 ft 486 kts 221°
2026-05-06 00:16 42.24725 -6.71243 38093 ft 486 kts 221°
2026-05-06 00:16 42.19418 -6.76892 38100 ft 486 kts 221°
2026-05-06 00:17 42.14100 -6.82543 38096 ft 487 kts 221°
2026-05-06 00:17 42.13148 -6.83553 38097 ft 487 kts 221°
2026-05-06 00:19 42.08597 -6.88375 38091 ft 487 kts 221°
2026-05-06 00:20 42.03259 -6.94020 38089 ft 487 kts 221°
2026-05-06 00:20 41.97929 -6.99643 38092 ft 487 kts 221°
2026-05-06 00:21 41.92597 -7.05258 38084 ft 487 kts 221°
2026-05-06 00:21 41.87298 -7.10825 38085 ft 486 kts 221°
2026-05-06 00:22 41.81975 -7.16408 38082 ft 485 kts 221°
2026-05-06 00:22 41.76650 -7.21976 38098 ft 485 kts 221°
2026-05-06 00:23 41.70984 -7.26938 38098 ft 488 kts 213°
2026-05-06 00:23 41.65085 -7.31452 38090 ft 488 kts 213°
2026-05-06 00:24 41.59186 -7.35965 38081 ft 488 kts 213°
2026-05-06 00:24 41.53300 -7.40502 38079 ft 488 kts 213°
2026-05-06 00:25 41.47432 -7.45033 38081 ft 487 kts 213°
2026-05-06 00:25 41.41564 -7.49560 38076 ft 487 kts 213°
2026-05-06 00:26 41.35729 -7.54048 38078 ft 487 kts 213°
2026-05-06 00:26 41.29866 -7.58548 38078 ft 486 kts 213°
2026-05-06 00:27 41.24007 -7.63034 38083 ft 486 kts 213°
2026-05-06 00:27 41.18139 -7.67518 38077 ft 486 kts 213°
2026-05-06 00:28 41.12273 -7.71992 38081 ft 486 kts 213°
2026-05-06 00:28 41.06407 -7.76456 38092 ft 486 kts 214°
2026-05-06 00:29 41.00539 -7.80914 38073 ft 486 kts 213°
2026-05-06 00:29 40.94676 -7.85355 38084 ft 485 kts 213°
2026-05-06 00:30 40.88814 -7.89789 38080 ft 485 kts 213°
2026-05-06 00:30 40.82985 -7.94188 38089 ft 484 kts 213°
2026-05-06 00:31 40.77136 -7.98595 38083 ft 484 kts 213°
2026-05-06 00:31 40.71301 -8.02978 38075 ft 475 kts 213°
2026-05-06 00:31 40.68461 -8.05103 38067 ft 464 kts 213°
2026-05-06 00:32 40.65659 -8.07202 38076 ft 462 kts 214°
2026-05-06 00:32 40.60084 -8.11380 38086 ft 461 kts 213°
2026-05-06 00:33 40.54512 -8.15549 38082 ft 461 kts 213°
2026-05-06 00:33 40.48939 -8.19707 38088 ft 460 kts 213°
2026-05-06 00:34 40.43364 -8.23857 38079 ft 461 kts 213°
2026-05-06 00:34 40.40575 -8.25931 37862 ft 464 kts 213°
2026-05-06 00:34 40.37776 -8.28012 37237 ft 468 kts 213°
2026-05-06 00:34 40.34952 -8.30106 36573 ft 465 kts 213°
2026-05-06 00:35 40.32143 -8.32186 35847 ft 463 kts 214°
2026-05-06 00:35 40.29337 -8.34262 35053 ft 463 kts 214°
2026-05-06 00:35 40.26530 -8.36338 34234 ft 463 kts 214°
2026-05-06 00:35 40.23721 -8.38415 33262 ft 464 kts 214°
2026-05-06 00:36 40.20912 -8.40491 32330 ft 464 kts 214°
2026-05-06 00:36 40.18096 -8.42569 31379 ft 464 kts 213°
2026-05-06 00:36 40.15271 -8.44652 30509 ft 464 kts 213°
2026-05-06 00:36 40.12469 -8.46713 29793 ft 459 kts 213°
2026-05-06 00:37 40.09720 -8.48733 29502 ft 446 kts 213°
2026-05-06 00:37 40.07059 -8.50684 29281 ft 432 kts 213°
2026-05-06 00:37 40.04442 -8.52486 29100 ft 420 kts 206°
2026-05-06 00:37 40.01634 -8.53448 28847 ft 420 kts 191°
2026-05-06 00:38 39.98712 -8.53407 28500 ft 418 kts 180°
2026-05-06 00:38 39.95814 -8.53099 28156 ft 419 kts 180°
2026-05-06 00:38 39.92893 -8.52800 27803 ft 422 kts 181°
2026-05-06 00:38 39.89989 -8.52527 27461 ft 423 kts 181°
2026-05-06 00:39 39.87057 -8.52271 27111 ft 421 kts 181°
2026-05-06 00:39 39.84141 -8.52028 26762 ft 419 kts 181°
2026-05-06 00:39 39.81233 -8.51792 26423 ft 417 kts 181°
2026-05-06 00:39 39.78355 -8.51679 26086 ft 410 kts 188°
2026-05-06 00:40 39.75583 -8.52291 25759 ft 400 kts 200°
2026-05-06 00:40 39.72997 -8.53531 25432 ft 393 kts 210°
2026-05-06 00:40 39.70650 -8.55289 25115 ft 387 kts 216°
2026-05-06 00:40 39.68366 -8.57126 24812 ft 386 kts 216°
2026-05-06 00:41 39.66087 -8.58964 24491 ft 385 kts 216°
2026-05-06 00:41 39.63805 -8.60791 24175 ft 385 kts 215°
2026-05-06 00:41 39.61523 -8.62604 23848 ft 385 kts 215°
2026-05-06 00:41 39.59238 -8.64408 23534 ft 384 kts 215°
2026-05-06 00:42 39.56957 -8.66202 23165 ft 383 kts 215°
2026-05-06 00:42 39.54680 -8.67988 22831 ft 381 kts 215°
2026-05-06 00:42 39.52426 -8.69753 22514 ft 379 kts 215°
2026-05-06 00:42 39.50199 -8.71497 22199 ft 377 kts 215°
2026-05-06 00:43 39.47935 -8.73270 21887 ft 374 kts 214°
2026-05-06 00:43 39.45744 -8.74984 21585 ft 372 kts 215°
2026-05-06 00:43 39.43525 -8.76717 21290 ft 370 kts 214°
2026-05-06 00:43 39.41354 -8.78486 20977 ft 367 kts 219°
2026-05-06 00:44 39.39374 -8.80539 20681 ft 363 kts 225°
2026-05-06 00:44 39.37583 -8.82817 20387 ft 360 kts 231°
2026-05-06 00:44 39.35925 -8.85234 20103 ft 358 kts 231°
2026-05-06 00:44 39.34289 -8.87653 19815 ft 357 kts 232°
2026-05-06 00:45 39.32659 -8.90069 19514 ft 356 kts 232°
2026-05-06 00:45 39.31033 -8.92476 19226 ft 355 kts 232°
2026-05-06 00:45 39.29411 -8.94868 18929 ft 354 kts 231°
2026-05-06 00:45 39.27788 -8.97255 18652 ft 353 kts 231°
2026-05-06 00:46 39.26164 -8.99638 18360 ft 353 kts 231°
2026-05-06 00:46 39.24541 -9.02014 18035 ft 352 kts 231°
2026-05-06 00:46 39.22924 -9.04378 17732 ft 351 kts 231°
2026-05-06 00:46 39.21310 -9.06739 17413 ft 350 kts 231°
2026-05-06 00:47 39.19722 -9.09058 17128 ft 348 kts 231°
2026-05-06 00:47 39.18099 -9.11424 16858 ft 347 kts 231°
2026-05-06 00:47 39.16521 -9.13726 16572 ft 346 kts 231°
2026-05-06 00:47 39.14931 -9.16041 16288 ft 345 kts 231°
2026-05-06 00:48 39.13343 -9.18351 16009 ft 344 kts 231°
2026-05-06 00:48 39.11755 -9.20662 15705 ft 343 kts 231°
2026-05-06 00:48 39.10179 -9.22951 15443 ft 341 kts 231°
2026-05-06 00:48 39.08598 -9.25245 15159 ft 341 kts 231°
2026-05-06 00:49 39.07027 -9.27527 14885 ft 340 kts 231°
2026-05-06 00:49 39.05464 -9.29795 14600 ft 339 kts 231°
2026-05-06 00:49 39.03898 -9.32063 14326 ft 338 kts 231°
2026-05-06 00:49 39.02340 -9.34319 14058 ft 337 kts 231°
2026-05-06 00:50 39.00801 -9.36546 13763 ft 337 kts 231°
2026-05-06 00:50 38.99244 -9.38798 13460 ft 336 kts 231°
2026-05-06 00:50 38.97692 -9.41040 13163 ft 335 kts 231°
2026-05-06 00:50 38.96151 -9.43266 12883 ft 333 kts 231°
2026-05-06 00:51 38.94641 -9.45447 12624 ft 331 kts 231°
2026-05-06 00:51 38.93122 -9.47639 12337 ft 328 kts 231°
2026-05-06 00:51 38.91603 -9.49827 12005 ft 327 kts 231°
2026-05-06 00:51 38.90093 -9.51999 11652 ft 326 kts 230°
2026-05-06 00:52 38.88384 -9.53884 11149 ft 330 kts 211°
2026-05-06 00:52 38.86193 -9.54854 10757 ft 337 kts 190°
2026-05-06 00:52 38.83871 -9.55005 10452 ft 334 kts 182°
2026-05-06 00:52 38.81535 -9.55028 10050 ft 336 kts 182°
2026-05-06 00:53 38.79214 -9.55039 9863 ft 327 kts 182°
2026-05-06 00:53 38.77003 -9.55055 9597 ft 310 kts 182°
2026-05-06 00:53 38.74884 -9.55082 9161 ft 300 kts 182°
2026-05-06 00:53 38.72831 -9.55117 8836 ft 288 kts 182°
2026-05-06 00:54 38.70852 -9.55155 8422 ft 281 kts 182°
2026-05-06 00:54 38.68948 -9.55194 8121 ft 270 kts 182°
2026-05-06 00:54 38.67086 -9.55234 8111 ft 271 kts 182°
2026-05-06 00:54 38.65140 -9.55278 8107 ft 287 kts 182°
2026-05-06 00:55 38.63113 -9.55324 8096 ft 292 kts 182°
2026-05-06 00:55 38.61066 -9.55368 8088 ft 301 kts 182°
2026-05-06 00:55 38.58847 -9.55364 8092 ft 338 kts 176°
2026-05-06 00:55 38.57230 -9.55069 8085 ft 355 kts 169°
2026-05-06 00:56 38.53946 -9.54130 8030 ft 375 kts 167°
2026-05-06 00:56 38.52234 -9.53641 7983 ft 383 kts 168°
2026-05-06 00:56 38.49740 -9.52836 7593 ft 356 kts 159°
2026-05-06 00:56 38.47637 -9.51420 7198 ft 328 kts 142°
2026-05-06 00:57 38.45909 -9.49709 6980 ft 301 kts 142°
2026-05-06 00:57 38.44247 -9.48235 6776 ft 281 kts 145°
2026-05-06 00:57 38.42651 -9.46881 6645 ft 272 kts 145°
2026-05-06 00:57 38.41238 -9.45385 6493 ft 257 kts 127°
2026-05-06 00:58 38.40221 -9.43553 6391 ft 250 kts 120°
2026-05-06 00:58 38.39308 -9.41742 6319 ft 243 kts 120°
2026-05-06 00:58 38.38398 -9.39958 6210 ft 236 kts 119°
2026-05-06 00:58 38.37799 -9.38098 6024 ft 223 kts 91°
2026-05-06 00:59 38.38028 -9.36208 5762 ft 213 kts 61°
2026-05-06 00:59 38.38854 -9.34693 5579 ft 204 kts 40°
2026-05-06 00:59 38.39991 -9.33732 5582 ft 195 kts 22°
2026-05-06 00:59 38.41269 -9.33046 5607 ft 204 kts 20°
2026-05-06 01:00 38.42608 -9.32363 5622 ft 208 kts 20°
2026-05-06 01:00 38.43952 -9.31678 5615 ft 206 kts 20°
2026-05-06 01:00 38.45277 -9.30998 5606 ft 204 kts 20°
2026-05-06 01:00 38.46587 -9.30322 5580 ft 203 kts 20°
2026-05-06 01:01 38.47866 -9.29659 5401 ft 197 kts 20°
2026-05-06 01:01 38.49110 -9.29015 5243 ft 187 kts 20°
2026-05-06 01:01 38.50309 -9.28409 5104 ft 183 kts 20°
2026-05-06 01:01 38.51485 -9.27801 4980 ft 182 kts 20°
2026-05-06 01:02 38.52662 -9.27183 4862 ft 182 kts 21°
2026-05-06 01:02 38.53830 -9.26564 4726 ft 181 kts 20°
2026-05-06 01:02 38.54968 -9.25959 4593 ft 173 kts 21°
2026-05-06 01:02 38.56044 -9.25386 4428 ft 162 kts 20°
2026-05-06 01:03 38.57040 -9.24854 4284 ft 148 kts 20°
2026-05-06 01:03 38.57984 -9.24353 4221 ft 151 kts 20°
2026-05-06 01:03 38.58974 -9.23827 4103 ft 156 kts 20°
2026-05-06 01:03 38.59964 -9.23299 3936 ft 150 kts 20°
2026-05-06 01:04 38.60889 -9.22805 3699 ft 141 kts 20°
2026-05-06 01:04 38.61792 -9.22323 3549 ft 141 kts 20°
2026-05-06 01:04 38.62713 -9.21833 3363 ft 146 kts 20°
2026-05-06 01:04 38.63648 -9.21332 3152 ft 145 kts 20°
2026-05-06 01:05 38.64546 -9.20852 2972 ft 136 kts 19°
2026-05-06 01:05 38.65428 -9.20385 2801 ft 139 kts 19°
2026-05-06 01:05 38.66314 -9.19911 2589 ft 136 kts 19°
2026-05-06 01:05 38.67189 -9.19443 2429 ft 138 kts 20°
2026-05-06 01:06 38.68084 -9.18965 2212 ft 139 kts 19°
2026-05-06 01:06 38.68969 -9.18493 2031 ft 137 kts 19°
2026-05-06 01:06 38.69859 -9.18018 1854 ft 139 kts 20°
2026-05-06 01:06 38.70764 -9.17533 1653 ft 142 kts 20°
2026-05-06 01:07 38.71661 -9.17052 1445 ft 138 kts 20°
2026-05-06 01:07 38.72567 -9.16570 1242 ft 144 kts 21°
2026-05-06 01:07 38.73493 -9.16073 1063 ft 145 kts 21°
2026-05-06 01:07 38.74426 -9.15573 837 ft 144 kts 20°
2026-05-06 01:08 38.75364 -9.15069 675 ft 148 kts 20°
2026-05-06 01:08 38.76332 -9.14551 421 ft 150 kts 21°
2026-05-06 01:08 38.77254 -9.14062 370 ft 131 kts 24°
2026-05-06 01:08 38.77992 -9.13667 371 ft 103 kts 22°
2026-05-06 01:09 38.78589 -9.13349 371 ft 84 kts 22°
2026-05-06 01:09 38.79055 -9.13102 365 ft 59 kts 22°
2026-05-06 01:09 38.79352 -9.12942 364 ft 39 kts 23°
2026-05-06 01:09 38.79546 -9.12838 361 ft 29 kts 22°
2026-05-06 01:10 38.79685 -9.12770 358 ft 12 kts
2026-05-06 01:10 38.79749 -9.12839 365 ft 14 kts 301°
2026-05-06 01:10 38.79761 -9.12957 367 ft 14 kts 236°
2026-05-06 01:10 38.79672 -9.13018 369 ft 17 kts 204°
2026-05-06 01:11 38.79505 -9.13106 368 ft 35 kts 202°
2026-05-06 01:11 38.79267 -9.13235 358 ft 31 kts 201°
2026-05-06 01:11 38.79069 -9.13340 359 ft 37 kts 202°
2026-05-06 01:11 38.78838 -9.13463 368 ft 36 kts 202°
2026-05-06 01:12 38.78721 -9.13526 374 ft 16 kts 203°
2026-05-06 01:12 38.78615 -9.13572 377 ft 16 kts 187°
2026-05-06 01:12 38.78499 -9.13545 375 ft 18 kts 168°
2026-05-06 01:12 38.78363 -9.13506 374 ft 21 kts 168°
2026-05-06 01:13 38.78225 -9.13469 374 ft 20 kts 169°
2026-05-06 01:13 38.78087 -9.13434 370 ft 20 kts 168°
2026-05-06 01:13 38.77949 -9.13462 368 ft 21 kts 202°
2026-05-06 01:13 38.77855 -9.13508 365 ft 11 kts 186°
2026-05-06 01:14 38.77656 -9.13468 360 ft 18 kts 168°
2026-05-06 01:14 38.77522 -9.13432 351 ft 21 kts 168°
2026-05-06 01:14 38.77382 -9.13395 356 ft 17 kts 168°
2026-05-06 01:15 38.77339 -9.13307 351 ft 13 kts 69°
2026-05-06 01:15 38.77418 -9.13274 354 ft 14 kts 344°
2026-05-06 01:15 38.77507 -9.13303 352 ft 10 kts 346°
2026-05-06 01:15 38.77568 -9.13319 348 ft 8 kts 358°
2026-05-06 01:16 38.77598 -9.13265 347 ft 8 kts 78°
2026-05-06 01:16 38.77606 -9.13215 345 ft 3 kts 78°
2026-05-06 01:16 38.77608 -9.13206 348 ft 0 kts 78°